Tracking 25648 objects as of 17-May-2022
HD Live streaming from Space Station
objects crossing your sky now

COSMOS 2251 DEB

Track COSMOS 2251 DEB now!
10-day predictions


NORAD ID: 34129
Int'l Code: 1993-036LA
Perigee: 686.7 km
Apogee: 755.2 km
Inclination: 74.0 °
Period: 99.1 minutes
Semi major axis: 7091 km
RCS: 0.0571 m2 (small)
Launch date: June 16, 1993
Source: Commonwealth of Independent States (former USSR) (CIS)
Launch site: PLESETSK MISSILE AND SPACE COMPLEX (PKMTR)

Note: This is SATELLITE DEBRIS
aabbcc
Your satellite tracking list
Your tracking list is empty




NASA's NSSDC Master Catalog

Two Line Element Set (TLE):
1 34129U 93036LA  22136.25738350  .00003455  00000-0  81978-3 0  9990
2 34129  74.0464 320.6365 0048302  18.8118 341.4815 14.53632325422025
Source of the keplerian elements: AFSPC